This is the latest recevied weather packets stored in our database for station/object W6UA-13. If no packets are shown the sender has not sent any weather packets the latest 10 day(s).
| Time | Temp. | Humidity | Pressure | Rain* | Wind** | Luminosity | Snow |
|---|---|---|---|---|---|---|---|
| 1777880983 | 8.89° C | 84% | 1015.2 hPa | 0 mm | - | 0 W/m² | - |
| 1777880083 | 8.89° C | 84% | 1015.4 hPa | 0 mm | - | 0 W/m² | - |
| 1777879183 | 8.89° C | 84% | 1015.4 hPa | 0 mm | - | 0 W/m² | - |
| 1777878283 | 8.89° C | 84% | 1015.4 hPa | 0 mm | - | 0 W/m² | - |
| 1777877383 | 9.44° C | 83% | 1015.4 hPa | 0 mm | - | 0 W/m² | - |
| 1777876483 | 9.44° C | 83% | 1015.4 hPa | 0 mm | - | 0 W/m² | - |
| 1777875583 | 9.44° C | 82% | 1015.4 hPa | 0 mm | - | 0 W/m² | - |
| 1777874683 | 10° C | 82% | 1015.4 hPa | 0 mm | - | 0 W/m² | - |
| 1777873783 | 10° C | 81% | 1015.5 hPa | 0 mm | - | 0 W/m² | - |
| 1777872883 | 10° C | 81% | 1015.7 hPa | 0 mm | - | 0 W/m² | - |
| 1777871983 | 10.56° C | 80% | 1015.8 hPa | 0 mm | - | 0 W/m² | - |
| 1777871083 | 11.11° C | 79% | 1015.5 hPa | 0 mm | - | 0 W/m² | - |
| 1777870183 | 11.67° C | 79% | 1015.4 hPa | 0 mm | - | 0 W/m² | - |
| 1777869283 | 11.67° C | 77% | 1015.4 hPa | 0 mm | - | 0 W/m² | - |
| 1777868383 | 12.22° C | 76% | 1015.1 hPa | 0 mm | - | 0 W/m² | - |
| 1777867483 | 12.78° C | 75% | 1014.9 hPa | 0 mm | - | 0 W/m² | - |
| 1777866583 | 13.33° C | 75% | 1014.8 hPa | 0 mm | - | 0 W/m² | - |
| 1777865683 | 13.33° C | 74% | 1014.7 hPa | 0 mm | - | 0 W/m² | - |
| 1777864783 | 13.33° C | 74% | 1014.6 hPa | 0 mm | - | 0 W/m² | - |
| 1777863883 | 13.89° C | 74% | 1014.7 hPa | 0 mm | - | 0 W/m² | - |
| 1777862983 | 13.89° C | 73% | 1014.4 hPa | 0 mm | - | 5 W/m² | - |
| 1777862083 | 14.44° C | 71% | 1014.6 hPa | 0 mm | - | 11 W/m² | - |
| 1777861183 | 14.44° C | 70% | 1014.5 hPa | 0 mm | - | 21 W/m² | - |
| 1777860283 | 15° C | 69% | 1014.5 hPa | 0 mm | - | 69 W/m² | - |
| 1777859383 | 15° C | 69% | 1014.5 hPa | 0 mm | - | 88 W/m² | - |
* Rain latest hour (hover to see other rain measurements)
** Current wind speed in m/s (hover to see current wind gust speed)